When you browse on this site, cookies collect data to enhance your experience and personalize the content and advertising you see.
Visit our Privacy Policy to learn more. By continuing to use the site, you agree to this use of cookies and data.
  • In Germany
  • List of Countries
  • For 7 days
  • Water Temperature
  • Satellite Maps
  • Weather Map
  • Weather Widgets
  • user-avatar
    Login

    Hourly Weather Córdoba

    Today, 23 July, Tuesday

    Time Temperature Precipitation Wind Pressure Humidity
    00:00 +10°C° 0 mm 3 mps 729 mmHg 35%
    01:00 +9°C° 0 mm 3 mps 729 mmHg 36%
    02:00 +9°C° 0 mm 3 mps 729 mmHg 37%
    03:00 +9°C° 0 mm 3 mps 729 mmHg 39%
    04:00 +8°C° 0 mm 3 mps 729 mmHg 41%
    05:00 +7°C° 0 mm 3 mps 729 mmHg 43%
    06:00 +7°C° 0 mm 3 mps 729 mmHg 42%
    07:00 +8°C° 0 mm 3 mps 729 mmHg 42%
    08:00 +8°C° 0 mm 2 mps 730 mmHg 41%
    09:00 +9°C° 0 mm 3 mps 730 mmHg 37%
    10:00 +11°C° 0 mm 3 mps 730 mmHg 33%
    11:00 +12°C° 0 mm 3 mps 731 mmHg 29%
    12:00 +13°C° 0 mm 3 mps 730 mmHg 26%
    13:00 +14°C° 0 mm 3 mps 730 mmHg 24%
    14:00 +14°C° 0 mm 3 mps 729 mmHg 21%
    15:00 +14°C° 0 mm 3 mps 730 mmHg 22%
    16:00 +13°C° 0 mm 3 mps 730 mmHg 24%
    17:00 +13°C° 0 mm 3 mps 730 mmHg 25%
    18:00 +11°C° 0 mm 3 mps 730 mmHg 30%
    19:00 +10°C° 0 mm 2 mps 731 mmHg 35%
    20:00 +9°C° 0 mm 2 mps 731 mmHg 41%
    21:00 +9°C° 0 mm 1 mps 732 mmHg 44%
    22:00 +9°C° 0 mm 1 mps 732 mmHg 48%
    23:00 +8°C° 0 mm 1 mps 732 mmHg 51%

    Tomorrow, 24 July, Wednesday

    Time Temperature Precipitation Wind Pressure Humidity
    00:00 +7°C° 0 mm 0 mps 732 mmHg 52%
    01:00 +7°C° 0 mm 0 mps 733 mmHg 53%
    02:00 +7°C° 0 mm 0 mps 733 mmHg 54%
    03:00 +8°C° 0 mm 1 mps 733 mmHg 53%
    04:00 +8°C° 0 mm 1 mps 733 mmHg 52%
    05:00 +8°C° 0 mm 1 mps 732 mmHg 51%
    06:00 +8°C° 0 mm 1 mps 733 mmHg 50%
    07:00 +9°C° 0 mm 1 mps 733 mmHg 48%
    08:00 +9°C° 0 mm 1 mps 734 mmHg 47%
    09:00 +10°C° 0 mm 1 mps 734 mmHg 43%
    10:00 +10°C° 0 mm 2 mps 734 mmHg 38%
    11:00 +13°C° 0 mm 2 mps 734 mmHg 34%
    12:00 +13°C° 0 mm 2 mps 733 mmHg 32%
    13:00 +14°C° 0 mm 2 mps 733 mmHg 30%
    14:00 +15°C° 0 mm 2 mps 732 mmHg 28%
    15:00 +14°C° 0 mm 2 mps 732 mmHg 29%
    16:00 +14°C° 0 mm 2 mps 732 mmHg 30%
    17:00 +13°C° 0 mm 2 mps 732 mmHg 30%
    18:00 +12°C° 0 mm 2 mps 732 mmHg 34%
    19:00 +9°C° 0 mm 2 mps 732 mmHg 38%
    20:00 +9°C° 0 mm 1 mps 732 mmHg 42%
    21:00 +8°C° 0 mm 1 mps 732 mmHg 43%
    22:00 +8°C° 0 mm 1 mps 732 mmHg 44%
    23:00 +8°C° 0 mm 1 mps 732 mmHg 45%

    Day after tomorrow, 25 July, Thursday

    Time Temperature Precipitation Wind Pressure Humidity
    00:00 +7°C° 0 mm 1 mps 732 mmHg 45%
    01:00 +6°C° 0 mm 0 mps 731 mmHg 45%
    02:00 +6°C° 0 mm 0 mps 731 mmHg 45%
    03:00 +6°C° 0 mm 0 mps 731 mmHg 45%
    04:00 +5°C° 0 mm 0 mps 730 mmHg 45%
    05:00 +5°C° 0 mm 0 mps 730 mmHg 45%
    06:00 +5°C° 0 mm 0 mps 730 mmHg 45%
    07:00 +6°C° 0 mm 0 mps 730 mmHg 44%
    08:00 +6°C° 0 mm 0 mps 731 mmHg 44%
    09:00 +8°C° 0 mm 0 mps 731 mmHg 39%
    10:00 +11°C° 0 mm 1 mps 730 mmHg 35%
    11:00 +12°C° 0 mm 1 mps 730 mmHg 31%
    12:00 +13°C° 0 mm 2 mps 730 mmHg 29%
    13:00 +14°C° 0 mm 2 mps 729 mmHg 27%
    14:00 +15°C° 0 mm 2 mps 728 mmHg 26%
    15:00 +15°C° 0 mm 2 mps 728 mmHg 27%
    16:00 +14°C° 0 mm 2 mps 728 mmHg 29%
    17:00 +14°C° 0 mm 2 mps 727 mmHg 31%
    18:00 +12°C° 0 mm 2 mps 728 mmHg 36%
    19:00 +10°C° 0 mm 1 mps 728 mmHg 41%
    20:00 +9°C° 0 mm 1 mps 728 mmHg 46%
    21:00 +8°C° 0 mm 1 mps 728 mmHg 49%
    22:00 +8°C° 0 mm 1 mps 728 mmHg 52%
    23:00 +7°C° 0 mm 1 mps 728 mmHg 56%

    26 July, Friday

    Time Temperature Precipitation Wind Pressure Humidity
    00:00 +6°C° 0 mm 0 mps 728 mmHg 57%
    01:00 +6°C° 0 mm 0 mps 728 mmHg 58%
    02:00 +6°C° 0 mm 0 mps 728 mmHg 60%
    03:00 +5°C° 0 mm 0 mps 728 mmHg 59%
    04:00 +5°C° 0 mm 0 mps 728 mmHg 58%
    05:00 +5°C° 0 mm 0 mps 728 mmHg 58%
    06:00 +6°C° 0 mm 0 mps 728 mmHg 55%
    07:00 +6°C° 0 mm 0 mps 729 mmHg 53%
    08:00 +7°C° 0 mm 0 mps 730 mmHg 51%
    09:00 +9°C° 0 mm 0 mps 730 mmHg 45%
    10:00 +13°C° 0 mm 1 mps 731 mmHg 38%
    11:00 +15°C° 0 mm 1 mps 731 mmHg 32%
    12:00 +16°C° 0 mm 1 mps 731 mmHg 31%
    13:00 +18°C° 0 mm 1 mps 730 mmHg 29%
    14:00 +19°C° 0 mm 1 mps 730 mmHg 28%
    15:00 +18°C° 0 mm 1 mps 730 mmHg 29%
    16:00 +18°C° 0 mm 1 mps 730 mmHg 31%
    17:00 +16°C° 0 mm 1 mps 730 mmHg 33%
    18:00 +15°C° 0 mm 1 mps 730 mmHg 36%
    19:00 +14°C° 0 mm 1 mps 731 mmHg 39%
    20:00 +13°C° 0 mm 1 mps 731 mmHg 43%
    21:00 +12°C° 0 mm 1 mps 732 mmHg 45%
    22:00 +12°C° 0 mm 1 mps 732 mmHg 47%
    23:00 +11°C° 0 mm 1 mps 732 mmHg 50%

    27 July, Saturday

    Time Temperature Precipitation Wind Pressure Humidity
    00:00 +10°C° 0 mm 0 mps 732 mmHg 52%
    01:00 +9°C° 0 mm 0 mps 732 mmHg 54%
    02:00 +9°C° 0 mm 0 mps 732 mmHg 56%
    03:00 +8°C° 0 mm 0 mps 732 mmHg 57%
    04:00 +9°C° 0 mm 1 mps 732 mmHg 58%
    05:00 +9°C° 0 mm 1 mps 731 mmHg 60%
    06:00 +9°C° 0 mm 1 mps 732 mmHg 59%
    07:00 +9°C° 0 mm 1 mps 732 mmHg 59%
    08:00 +9°C° 0 mm 1 mps 732 mmHg 59%
    09:00 +10°C° 0 mm 2 mps 732 mmHg 53%
    10:00 +12°C° 0 mm 3 mps 732 mmHg 48%
    11:00 +14°C° 0 mm 4 mps 732 mmHg 43%
    12:00 +15°C° 0 mm 4 mps 732 mmHg 43%
    13:00 +15°C° 0 mm 5 mps 731 mmHg 44%
    14:00 +16°C° 0 mm 5 mps 730 mmHg 44%
    15:00 +15°C° 0 mm 5 mps 730 mmHg 48%
    16:00 +14°C° 0 mm 5 mps 729 mmHg 52%
    17:00 +14°C° 0 mm 5 mps 729 mmHg 55%
    18:00 +12°C° 0 mm 4 mps 729 mmHg 64%
    19:00 +10°C° 0 mm 4 mps 729 mmHg 73%
    20:00 +9°C° 0 mm 3 mps 729 mmHg 82%
    21:00 +8°C° 0 mm 4 mps 729 mmHg 80%
    22:00 +8°C° 0 mm 4 mps 729 mmHg 78%
    23:00 +9°C° 0 mm 5 mps 729 mmHg 75%

    28 July, Sunday

    Time Temperature Precipitation Wind Pressure Humidity
    00:00 +8°C° 0 mm 4 mps 729 mmHg 75%
    01:00 +8°C° 0 mm 4 mps 729 mmHg 75%
    02:00 +8°C° 0 mm 4 mps 728 mmHg 76%
    03:00 +8°C° 0 mm 4 mps 728 mmHg 76%
    04:00 +8°C° 0 mm 4 mps 728 mmHg 77%
    05:00 +8°C° 0 mm 4 mps 727 mmHg 77%
    06:00 +10°C° 0 mm 4 mps 727 mmHg 77%
    07:00 +10°C° 0 mm 4 mps 728 mmHg 78%
    08:00 +10°C° 0 mm 4 mps 728 mmHg 78%
    09:00 +10°C° 0 mm 5 mps 728 mmHg 72%
    10:00 +13°C° 0 mm 5 mps 728 mmHg 66%
    11:00 +14°C° 0 mm 5 mps 727 mmHg 60%
    12:00 +15°C° 0 mm 5 mps 727 mmHg 57%
    13:00 +16°C° 0 mm 5 mps 726 mmHg 54%
    14:00 +17°C° 0 mm 5 mps 725 mmHg 51%
    15:00 +16°C° 0 mm 5 mps 725 mmHg 53%
    16:00 +17°C° 0 mm 4 mps 725 mmHg 55%
    17:00 +17°C° 0 mm 4 mps 724 mmHg 56%
    18:00 +14°C° 0 mm 4 mps 724 mmHg 65%
    19:00 +12°C° 0 mm 3 mps 725 mmHg 73%
    20:00 +10°C° 0 mm 3 mps 725 mmHg 82%
    21:00 +10°C° 0 mm 2 mps 725 mmHg 84%
    22:00 +9°C° 0 mm 2 mps 725 mmHg 87%
    23:00 +9°C° 0 mm 2 mps 726 mmHg 89%
    Show more